This is the latest recevied weather packets stored in our database for station/object KC1DMA. If no packets are shown the sender has not sent any weather packets the latest 10 day(s).
| Time | Temp. | Humidity | Pressure | Rain* | Wind** | Luminosity | Snow |
|---|---|---|---|---|---|---|---|
| 1777844580 | 12.78° C | 35% | 1011.2 hPa | - | - | 261 W/m² | - |
| 1777844278 | 12.78° C | 36% | 1010.8 hPa | - | - | 275 W/m² | - |
| 1777843975 | 12.78° C | 36% | 1011 hPa | - | - | 303 W/m² | - |
| 1777843672 | 12.22° C | 36% | 1011 hPa | - | - | 325 W/m² | - |
| 1777843370 | 12.78° C | 37% | 1011.2 hPa | - | - | 327 W/m² | - |
| 1777843067 | 12.22° C | 36% | 1011.2 hPa | - | - | 346 W/m² | - |
| 1777842763 | 12.22° C | 36% | 1010.9 hPa | - | - | 380 W/m² | - |
| 1777842458 | 11.67° C | 36% | 1010.8 hPa | - | - | 161 W/m² | - |
| 1777842156 | 12.22° C | 39% | 1010.9 hPa | - | - | 417 W/m² | - |
| 1777841851 | 12.22° C | 36% | 1010.9 hPa | - | - | 414 W/m² | - |
| 1777841547 | 12.22° C | 37% | 1010.8 hPa | - | - | 441 W/m² | - |
| 1777841244 | 12.22° C | 37% | 1011 hPa | - | - | 445 W/m² | - |
| 1777840942 | 11.67° C | 37% | 1010.8 hPa | - | - | 470 W/m² | - |
| 1777840639 | - | - | - | - | - | - | - |
| 1777840337 | 11.67° C | 40% | 1010.6 hPa | - | - | 473 W/m² | - |
| 1777840034 | 12.78° C | 37% | 1010.8 hPa | - | - | 591 W/m² | - |
| 1777839732 | 11.67° C | 38% | 1010.8 hPa | - | - | 298 W/m² | - |
| 1777839429 | 11.11° C | 38% | 1010.9 hPa | - | - | 245 W/m² | - |
| 1777839126 | 10.56° C | 38% | 1010.8 hPa | - | - | 621 W/m² | - |
| 1777838823 | 10.56° C | 38% | 1010.8 hPa | - | - | 172 W/m² | - |
| 1777838519 | 11.11° C | 38% | 1010.8 hPa | - | - | 240 W/m² | - |
| 1777838216 | 11.67° C | 39% | 1010.9 hPa | - | - | 235 W/m² | - |
| 1777837913 | 11.67° C | 40% | 1010.8 hPa | - | - | 244 W/m² | - |
| 1777837604 | 10.56° C | 39% | 1010.7 hPa | - | - | 564 W/m² | - |
| 1777837299 | 11.67° C | 39% | 1010.6 hPa | - | - | 717 W/m² | - |
* Rain since midnight (hover to see other rain measurements)
** Current wind speed in m/s (hover to see current wind gust speed)